Location: El Jobito
(9.6889°N, 67.7939°W)
Time: 06:54:53
(UTC+00:00)

Daily predictions for brighter satellites

Satellite Brightness Start Highest point End
(mag) Time Altitude Azimuth Time Altitude Azimuth Time Altitude Azimuth
ARIANE 5 R/B 4.4 19:41:01 10° W 23:13:54 58° S 23:21:35 10° ESE
Radarsat Rocket 4.3 23:09:16 10° SSE 23:15:24 66° ENE 23:22:16 10° N
FALCON 9 R/B 4.2 23:14:15 10° NNE 23:15:48 11° NE 23:17:46 10° ENE
Meteor 1-11 Rocket 3.9 23:13:03 10° N 23:18:58 67° E 23:24:51 10° SSE
USA 59 Rocket 1.8 23:13:27 10° NNW 23:19:32 66° WSW 23:28:09 10° SSE
Cosmos 2279 Rocket 4.0 23:13:40 10° N 23:19:51 67° E 23:26:03 10° SSE
Cosmos 1340 2.5 23:19:01 10° N 23:22:16 50° E 23:25:31 10° SSE
Meteor 2-4 Rocket 3.8 23:18:04 10° S 23:23:58 75° E 23:29:50 10° N
NOAA 6 4.1 23:19:12 10° SSE 23:24:20 87° WSW 23:29:30 10° NNW
SAR-Lupe-2 3.5 23:21:15 10° SSE 23:24:48 89° ENE 23:28:21 10° NNW
SWIFT 3.0 23:26:01 10° SW 23:29:33 31° SSE 23:32:46 12° E
SL-8 R/B 3.9 23:25:39 10° NNW 23:30:17 56° NE 23:34:26 13° SE
Cosmos 2026 Rocket 4.4 23:24:47 10° SSE 23:30:38 42° E 23:36:22 10° NNE
Cosmos 1697 Rocket 3.9 23:28:17 10° NNE 23:32:34 22° ENE 23:35:59 13° ESE
Cosmos 1975 4.4 23:30:46 10° NE 23:33:04 15° E 23:34:17 14° ESE
ADEOS Rocket 3.9 23:26:50 10° S 23:33:36 65° WSW 23:41:02 10° NNW
Cosmos 1626 1.7 23:33:33 10° S 23:36:44 87° W 23:39:54 10° N
Meteor 2-10 3.9 23:33:10 10° N 23:38:10 81° E 23:43:13 10° S
CZ-4B R/B 4.0 23:37:42 15° SE 23:40:19 27° ENE 23:43:53 10° NNE
Cosmos 1328 Rocket 3.4 23:36:40 10° S 23:40:55 67° E 23:45:09 10° N
COSMOS 2406 4.0 23:35:50 10° SSW 23:41:29 57° WNW 23:47:05 10° N
GPS 2-15 Rocket1 3.3 23:40:46 10° WSW 23:45:33 79° NNW 23:50:24 10° ENE
ATLAS CENTAUR R/B 1.2 23:45:46 10° S 23:49:04 42° ESE 23:52:20 10° NE
Cosmos 44 Rocket 3.2 23:44:43 10° NNW 23:49:24 82° WSW 23:53:32 13° SSE
Cosmos 1980 Rocket 4.0 23:48:53 10° NE 23:51:19 13° ENE 23:52:08 12° E
Cosmos 1743 Rocket 3.7 23:50:21 10° N 23:54:46 78° W 23:59:11 10° S
